FENGYUN 1C DEB, 30054

Orbit data source: Space-Track

FENGYUN 1C DEB, 30054 is space debris in SSO originally from a launch on Mon, 10 May 1999 UTC launched from the Taiyaun Space Center, China (TSC). Fengyun 1C debris stems from the Chinese weather satellite Fengyun-1C, which was intentionally destroyed by a Chinese anti-satellite missile in 2007. This event dramatically increased the amount of space debris, with thousands of trackable fragments posing hazards to satellites and human spaceflight. The Fengyun 1C debris cloud has become a focal point in discussions about space sustainability and the need for international regulations to prevent the creation of new debris.

Loading next visibility...
Identifier
30054, 1999-025PF
Orbit
SSO
Country
Flag of CNCN / PRC
Related business
Manufacturer
Unknown
Mission
Spacecraft
Bus & Motor
Unknown
Mass
Unknown
Launch date (UTC)
1999-05-10 (27 years ago)
Launch vehicle
Unknown
Launch site
Taiyaun Space Center, China (TSC)
Object type
Payload
Rocket body
Debris
Shape & HBR
Unknown shape, 0.1 m
Radar Cross Section
Medium (>0.1 m² and <1 m²)

Expand to show TLE details & history
Last TLE update: 13 hours ago

TLE from 13 hours ago
0 FENGYUN 1C DEB
1 30054U 99025PF  26254.03062157  .00000290  00000-0  28907-3 0  9990
2 30054  99.3435 284.0389 0276238  16.9734  12.4046 13.70138232980777
Epoch: 2026-09-11T00:44Z
TLE epoch observation values (Epoch: 2026-09-11T00:44:05.703Z)
Latitude
29.69414°
Longitude
-82.39968°
Altitude
803.908 km
Speed
7.554 km/s
True Right ascension
18h 34m 44s
True Declination
29° 32' 50"
Sunlit
Object was in daylight at epoch
Visualization orbit readout
Latitude
Unknown
Longitude
Unknown
Altitude
Unknown
Speed
Unknown
Apparent Right ascension
Unknown
Apparent Declination
Unknown
Sunlit
N/A
Visualization observer readout
Local Sidereal Time
06:16:12
Azimuth
Unknown
Elevation
Unknown
Doppler factor
Unknown
Orbital elements
Apogee altitude
1,200.039 km
Perigee altitude
792.617 km
Semi-major axis
7,374.465 km
Eccentricity
0.02762
Inclination
99.3435°
RAAN
284.0389°
Arg. of periapsis
16.9734°
True anomaly
13.10826°
Mean anomaly
12.4046°
Eccentric anomaly
12.75401°
Mean motion
3.42726 °/min
Orbital period
105.04 mins
BSTAR
0.00028907
Loading maneuver chart data...
Computing Atmospheric mass density...
Loading historical data...
Loading historical data...
Loading historical data...
Loading historical data...
Loading historical data...
Loading historical data...
Loading historical data...

Documentation

Showing up to 5 results
|